Regional Weather Roundup
Issued by NWS

Home | Current Version | Previous Version | Graphics & Text | Print | Product List | Glossary On
Versions: 1 2 3 4 5 6 7 8 9 10 11 12 13 14 15 16 17 18 19 20 21 22 23 24 25 26 27 28 29 30 31 32 33 34 35 36 37 38 39 40 41 42 43 44 45 46 47 48 49 50
000
ASUS43 KLSX 190107
RWRMO

WEATHER SUMMARY FOR MISSOURI
NATIONAL WEATHER SERVICE SPRINGFIELD MO
800 PM CDT THU SEP 18 2014

NOTE: "FAIR" INDICATES FEW OR NO CLOUDS BELOW 12,000 FEET WITH NO
       SIGNIFICANT WEATHER AND/OR OBSTRUCTIONS TO VISIBILITY.
       CURRENT SKY AND/OR WEATHER CONDITIONS ARE NOT AVAILABLE FOR
       CHILLICOTHE AND FARMINGTON.

MOZ001>031-035>038-043-044-053-054-190200-
...NORTHERN AND WESTERN MISSOURI...

CITY           SKY/WX    TMP DP  RH WIND       PRES   REMARKS
KANSAS CTY INT PTCLDY    65  61  87 E8        30.00F
KANSAS C DTWN  PTCLDY    66  62  87 E8        29.99F
LEE`S SUMMIT   PTCLDY    65  61  87 E3        30.01S
ST JOSEPH      CLEAR     65  60  84 SE5       29.99F
CHILLICOTHE      N/A     66  59  78 E3        30.03R
KIRKSVILLE     CLEAR     63  54  72 E5        30.05R

$$
MOZ066>068-077>081-088>096-101>105-190200-
...SOUTHWEST MISSOURI...

CITY           SKY/WX    TMP DP  RH WIND       PRES   REMARKS
SPRINGFIELD    CLEAR     66  61  84 E8        30.00R
JOPLIN         CLEAR     69  63  81 VRB5      29.97R

$$
MOZ032>034-039>042-045>050-055>058-069>072-190200-
...CENTRAL MISSOURI...

CITY           SKY/WX    TMP DP  RH WIND       PRES   REMARKS
COLUMBIA       PTCLDY    63  59  87 E6        30.01S
JEFFERSON CITY CLOUDY    66  61  84 CALM      30.01R
ROLLA          MOCLDY    64  61  90 SE3       30.02R FOG
SEDALIA        MOCLDY    67  62  84 CALM      30.02R
WHITEMAN AFB   MOCLDY    65  62  89 SE2       30.01R
OSAGE BEACH    MOCLDY    64  61  88 S3        30.02S

$$
MOZ051-052-059>065-190200-
...EAST CENTRAL MISSOURI...

CITY           SKY/WX    TMP DP  RH WIND       PRES   REMARKS
ST LOUIS INTL  PTCLDY    68  53  58 E6        30.04R
SPIRIT OF STL  CLEAR     61  56  83 CALM      30.03R
ST CHARLES     CLEAR     60  57  89 NE3       30.03R

$$
MOZ072>076-082>087-097>100-106>115-190200-
...SOUTH CENTRAL AND SOUTHEAST MISSOURI...

CITY           SKY/WX    TMP DP  RH WIND       PRES   REMARKS
CAPE GIRARDEAU MOCLDY    67  61  81 NE5       30.01R
FARMINGTON     CLOUDY    64  57  77 CALM      30.05R
POPLAR BLUFF   CLOUDY    66  60  81 N5        30.00R
WEST PLAINS    CLEAR     62  59  90 CALM      30.03S FOG

$$



USA.gov is the U.S. government's official web portal to all federal, state and local government web resources and services.